QPF
0.12 0.16 0.18 0.21 0.24 0.24 0.23 0.20 0.20 0.21 0.19 0.17 0.07 0.02 0.01 0.01 0.00 0.01 0.01 0.00 0.00 0.00 0.00 0.00 0.00 0.00 0.01 0.02 0.03 0.03 0.03 0.03 0.03 0.04 0.05 0.07 0.09 0.12
0.09 0.13 0.15 0.15 0.22 0.27 0.27 0.26 0.24 0.24 0.24 0.19 0.12 0.08 0.05 0.02 0.01 0.01 0.00 0.00 0.00 0.00 0.00 0.00 0.00 0.00 0.00 0.01 0.01 0.02 0.02 0.02 0.02 0.03 0.04 0.04 0.06 0.07
0.05 0.08 0.12 0.15 0.18 0.23 0.27 0.28 0.28 0.27 0.25 0.25 0.22 0.20 0.16 0.09 0.04 0.03 0.01 0.01 0.00 0.00 0.00 0.00 0.00 0.00 0.00 0.00 0.00 0.01 0.01 0.01 0.02 0.03 0.05 0.05 0.06 0.06
0.04 0.05 0.08 0.11 0.15 0.20 0.25 0.29 0.29 0.30 0.29 0.27 0.29 0.30 0.26 0.17 0.09 0.06 0.03 0.02 0.00 0.00 0.00 0.00 0.00 0.00 0.00 0.00 0.01 0.01 0.01 0.01 0.02 0.02 0.03 0.04 0.06 0.07
0.03 0.05 0.07 0.08 0.09 0.13 0.19 0.26 0.30 0.29 0.28 0.27 0.27 0.27 0.24 0.18 0.13 0.08 0.04 0.02 0.01 0.00 0.00 0.00 0.00 0.00 0.00 0.00 0.00 0.00 0.00 0.01 0.01 0.01 0.02 0.03 0.04 0.05
0.02 0.04 0.07 0.09 0.09 0.09 0.12 0.17 0.23 0.28 0.29 0.26 0.25 0.26 0.23 0.21 0.16 0.10 0.06 0.03 0.01 0.00 0.00 0.00 0.00 0.00 0.00 0.00 0.00 0.00 0.01 0.00 0.01 0.01 0.01 0.01 0.02 0.02
0.04 0.04 0.04 0.07 0.10 0.10 0.09 0.10 0.15 0.21 0.26 0.27 0.26 0.23 0.21 0.19 0.17 0.12 0.08 0.05 0.02 0.00 0.00 0.00 0.00 0.00 0.00 0.00 0.00 0.00 0.00 0.00 0.00 0.00 0.00 0.00 0.01 0.02
0.07 0.06 0.04 0.04 0.05 0.06 0.06 0.08 0.11 0.14 0.19 0.23 0.28 0.25 0.19 0.19 0.20 0.17 0.12 0.06 0.02 0.00 0.00 0.00 0.00 0.00 0.00 0.00 0.00 0.00 0.00 0.00 0.00 0.00 0.00 0.00 0.01 0.02
0.11 0.11 0.04 0.01 0.03 0.04 0.04 0.04 0.05 0.08 0.12 0.15 0.20 0.23 0.22 0.19 0.19 0.16 0.13 0.09 0.04 0.01 0.00 0.00 0.00 0.00 0.00 0.00 0.00 0.00 0.00 0.00 0.00 0.00 0.00 0.00 0.01 0.01
0.11 0.11 0.08 0.06 0.04 0.05 0.06 0.05 0.04 0.04 0.04 0.06 0.10 0.14 0.19 0.22 0.21 0.18 0.14 0.12 0.06 0.01 0.00 0.00 0.01 0.01 0.01 0.00 0.01 0.00 0.00 0.00 0.00 0.01 0.01 0.01 0.01 0.01
0.08 0.08 0.09 0.08 0.06 0.02 0.04 0.07 0.07 0.06 0.03 0.03 0.05 0.08 0.12 0.14 0.19 0.21 0.16 0.11 0.05 0.01 0.00 0.00 0.00 0.00 0.01 0.00 0.00 0.01 0.00 0.00 0.00 0.00 0.01 0.01 0.01 0.01
0.11 0.12 0.08 0.08 0.06 0.02 0.02 0.05 0.06 0.07 0.07 0.05 0.04 0.04 0.07 0.09 0.09 0.14 0.12 0.09 0.04 0.02 0.01 0.00 0.00 0.00 0.01 0.01 0.00 0.00 0.00 0.00 0.00 0.00 0.00 0.01 0.01 0.01
0.13 0.13 0.11 0.06 0.02 0.01 0.02 0.04 0.05 0.07 0.10 0.10 0.08 0.08 0.08 0.09 0.08 0.09 0.11 0.08 0.05 0.01 0.00 0.00 0.01 0.01 0.01 0.01 0.01 0.00 0.00 0.00 0.00 0.00 0.00 0.01 0.01 0.01
0.16 0.16 0.13 0.07 0.02 0.01 0.00 0.01 0.01 0.02 0.06 0.09 0.10 0.10 0.09 0.08 0.08 0.08 0.09 0.09 0.07 0.03 0.01 0.00 0.01 0.01 0.01 0.01 0.01 0.01 0.01 0.00 0.00 0.00 0.00 0.00 0.01 0.02
0.14 0.16 0.11 0.05 0.03 0.01 0.00 0.00 0.01 0.02 0.04 0.07 0.09 0.09 0.10 0.10 0.10 0.10 0.09 0.08 0.08 0.05 0.02 0.01 0.01 0.01 0.01 0.01 0.00 0.00 0.00 0.00 0.00 0.00 0.00 0.00 0.00 0.01
0.07 0.07 0.04 0.03 0.01 0.01 0.01 0.00 0.01 0.02 0.04 0.07 0.10 0.11 0.12 0.13 0.12 0.10 0.09 0.08 0.07 0.06 0.04 0.02 0.01 0.01 0.01 0.01 0.01 0.00 0.00 0.00 0.00 0.00 0.00 0.00 0.00 0.00
0.09 0.12 0.09 0.06 0.03 0.03 0.04 0.03 0.03 0.03 0.05 0.09 0.12 0.13 0.13 0.15 0.14 0.10 0.08 0.07 0.06 0.05 0.04 0.03 0.03 0.02 0.01 0.01 0.01 0.01 0.00 0.00 0.00 0.00 0.00 0.00 0.00 0.00
0.07 0.14 0.15 0.13 0.10 0.08 0.08 0.07 0.07 0.07 0.08 0.13 0.15 0.15 0.15 0.14 0.14 0.12 0.08 0.07 0.07 0.05 0.03 0.02 0.02 0.02 0.02 0.01 0.01 0.01 0.01 0.00 0.00 0.00 0.00 0.00 0.00 0.00
0.04 0.13 0.17 0.16 0.14 0.13 0.11 0.10 0.09 0.10 0.13 0.16 0.18 0.20 0.19 0.16 0.14 0.13 0.10 0.08 0.08 0.06 0.03 0.01 0.01 0.01 0.01 0.01 0.00 0.00 0.01 0.01 0.00 0.00 0.00 0.00 0.00 0.00
0.06 0.13 0.16 0.16 0.14 0.12 0.11 0.12 0.12 0.13 0.15 0.19 0.21 0.23 0.22 0.17 0.13 0.13 0.11 0.09 0.08 0.06 0.03 0.02 0.02 0.01 0.01 0.01 0.00 0.00 0.00 0.00 0.00 0.00 0.00 0.00 0.00 0.00
0.11 0.14 0.16 0.14 0.14 0.12 0.13 0.15 0.15 0.14 0.15 0.21 0.24 0.22 0.21 0.17 0.13 0.12 0.11 0.10 0.09 0.06 0.04 0.03 0.02 0.02 0.01 0.01 0.01 0.00 0.00 0.00 0.00 0.00 0.00 0.00 0.00 0.00
0.15 0.15 0.13 0.11 0.11 0.12 0.14 0.16 0.17 0.18 0.19 0.23 0.26 0.22 0.18 0.15 0.12 0.11 0.11 0.08 0.07 0.06 0.05 0.04 0.02 0.01 0.01 0.01 0.00 0.00 0.00 0.00 0.00 0.00 0.00 0.00 0.00 0.00
0.12 0.11 0.10 0.10 0.10 0.12 0.13 0.17 0.20 0.22 0.22 0.23 0.25 0.22 0.18 0.15 0.12 0.12 0.11 0.08 0.06 0.05 0.05 0.04 0.02 0.01 0.01 0.01 0.00 0.00 0.00 0.00 0.00 0.00 0.00 0.00 0.00 0.00
MSLP
1009.79 1009.90 1010.01 1010.11 1010.18 1010.18 1010.10 1009.94 1009.71 1009.44 1009.17 1008.93 1008.78 1008.74 1008.83 1009.06 1009.40 1009.82 1010.30 1010.78 1011.24 1011.64 1011.97 1012.23 1012.43 1012.58 1012.72 1012.87 1013.05 1013.28 1013.56 1013.91 1014.29 1014.71 1015.14 1015.56 1015.94 1016.28
1009.41 1009.60 1009.79 1009.98 1010.13 1010.21 1010.21 1010.12 1009.95 1009.72 1009.48 1009.25 1009.08 1009.01 1009.06 1009.23 1009.52 1009.89 1010.31 1010.76 1011.19 1011.57 1011.90 1012.15 1012.33 1012.47 1012.58 1012.68 1012.80 1012.97 1013.19 1013.47 1013.81 1014.19 1014.59 1014.99 1015.37 1015.72
1008.93 1009.16 1009.41 1009.67 1009.89 1010.06 1010.16 1010.16 1010.08 1009.94 1009.76 1009.57 1009.43 1009.36 1009.38 1009.51 1009.74 1010.05 1010.42 1010.82 1011.22 1011.58 1011.89 1012.14 1012.32 1012.46 1012.55 1012.63 1012.72 1012.85 1013.02 1013.25 1013.54 1013.88 1014.24 1014.62 1014.99 1015.32
1008.35 1008.60 1008.89 1009.19 1009.49 1009.74 1009.94 1010.05 1010.09 1010.05 1009.97 1009.86 1009.77 1009.72 1009.74 1009.84 1010.02 1010.27 1010.59 1010.94 1011.30 1011.64 1011.94 1012.20 1012.40 1012.55 1012.66 1012.75 1012.84 1012.94 1013.09 1013.28 1013.53 1013.82 1014.15 1014.50 1014.83 1015.14
1007.69 1007.93 1008.23 1008.57 1008.92 1009.26 1009.55 1009.78 1009.94 1010.03 1010.06 1010.05 1010.03 1010.02 1010.05 1010.13 1010.28 1010.49 1010.75 1011.06 1011.38 1011.71 1012.03 1012.30 1012.54 1012.74 1012.89 1013.02 1013.13 1013.25 1013.39 1013.57 1013.78 1014.04 1014.32 1014.63 1014.92 1015.18
1006.94 1007.17 1007.47 1007.83 1008.23 1008.63 1009.01 1009.35 1009.63 1009.84 1009.98 1010.08 1010.13 1010.18 1010.23 1010.31 1010.44 1010.62 1010.85 1011.12 1011.44 1011.77 1012.10 1012.43 1012.73 1012.99 1013.22 1013.41 1013.58 1013.73 1013.89 1014.07 1014.26 1014.49 1014.73 1014.98 1015.23 1015.45
1006.12 1006.33 1006.63 1007.00 1007.43 1007.89 1008.34 1008.77 1009.15 1009.47 1009.72 1009.90 1010.04 1010.14 1010.22 1010.32 1010.44 1010.61 1010.82 1011.09 1011.41 1011.76 1012.14 1012.53 1012.91 1013.26 1013.58 1013.87 1014.11 1014.33 1014.52 1014.71 1014.90 1015.10 1015.30 1015.51 1015.71 1015.88
1005.25 1005.45 1005.75 1006.13 1006.58 1007.08 1007.59 1008.08 1008.54 1008.93 1009.26 1009.52 1009.72 1009.87 1009.99 1010.11 1010.25 1010.42 1010.64 1010.92 1011.26 1011.66 1012.10 1012.57 1013.04 1013.50 1013.93 1014.31 1014.64 1014.93 1015.17 1015.39 1015.58 1015.76 1015.94 1016.11 1016.27 1016.41
1004.37 1004.58 1004.88 1005.28 1005.75 1006.27 1006.81 1007.34 1007.83 1008.27 1008.65 1008.96 1009.21 1009.40 1009.56 1009.71 1009.87 1010.06 1010.31 1010.62 1011.00 1011.46 1011.97 1012.52 1013.08 1013.64 1014.18 1014.66 1015.08 1015.44 1015.74 1015.99 1016.19 1016.37 1016.53 1016.68 1016.82 1016.94
1003.55 1003.78 1004.11 1004.52 1005.00 1005.52 1006.07 1006.60 1007.11 1007.56 1007.96 1008.29 1008.56 1008.78 1008.97 1009.15 1009.35 1009.58 1009.86 1010.21 1010.64 1011.15 1011.73 1012.35 1013.00 1013.65 1014.27 1014.84 1015.34 1015.77 1016.12 1016.40 1016.63 1016.81 1016.97 1017.11 1017.25 1017.37
1002.88 1003.14 1003.49 1003.92 1004.40 1004.92 1005.44 1005.95 1006.43 1006.87 1007.26 1007.58 1007.86 1008.10 1008.32 1008.54 1008.77 1009.03 1009.36 1009.75 1010.23 1010.78 1011.41 1012.08 1012.79 1013.50 1014.18 1014.82 1015.38 1015.85 1016.25 1016.56 1016.81 1017.01 1017.18 1017.33 1017.48 1017.63
1002.40 1002.71 1003.09 1003.52 1003.99 1004.48 1004.97 1005.43 1005.87 1006.26 1006.62 1006.93 1007.20 1007.45 1007.69 1007.93 1008.20 1008.50 1008.86 1009.29 1009.80 1010.38 1011.03 1011.73 1012.46 1013.20 1013.91 1014.58 1015.17 1015.68 1016.11 1016.45 1016.73 1016.95 1017.15 1017.32 1017.50 1017.69
1002.17 1002.51 1002.90 1003.32 1003.77 1004.21 1004.64 1005.05 1005.42 1005.76 1006.08 1006.36 1006.62 1006.88 1007.13 1007.40 1007.70 1008.03 1008.42 1008.87 1009.39 1009.98 1010.62 1011.32 1012.05 1012.78 1013.49 1014.16 1014.77 1015.29 1015.74 1016.11 1016.41 1016.67 1016.89 1017.10 1017.32 1017.55
1002.13 1002.49 1002.87 1003.27 1003.67 1004.05 1004.42 1004.75 1005.06 1005.35 1005.62 1005.87 1006.13 1006.39 1006.66 1006.95 1007.28 1007.64 1008.05 1008.50 1009.02 1009.60 1010.22 1010.89 1011.58 1012.28 1012.97 1013.62 1014.22 1014.75 1015.21 1015.60 1015.93 1016.22 1016.48 1016.73 1016.99 1017.26
1002.22 1002.56 1002.91 1003.27 1003.60 1003.92 1004.21 1004.48 1004.73 1004.96 1005.19 1005.43 1005.68 1005.95 1006.25 1006.57 1006.92 1007.30 1007.73 1008.19 1008.70 1009.24 1009.83 1010.46 1011.11 1011.77 1012.41 1013.04 1013.62 1014.15 1014.62 1015.03 1015.38 1015.70 1016.00 1016.29 1016.59 1016.90
1002.31 1002.61 1002.91 1003.19 1003.46 1003.71 1003.93 1004.13 1004.33 1004.53 1004.74 1004.97 1005.23 1005.52 1005.85 1006.20 1006.59 1007.00 1007.44 1007.90 1008.40 1008.92 1009.48 1010.06 1010.66 1011.27 1011.88 1012.48 1013.04 1013.56 1014.04 1014.47 1014.86 1015.21 1015.54 1015.87 1016.20 1016.54
1002.28 1002.51 1002.74 1002.95 1003.15 1003.32 1003.49 1003.65 1003.81 1003.99 1004.20 1004.44 1004.73 1005.05 1005.42 1005.81 1006.24 1006.68 1007.14 1007.62 1008.11 1008.62 1009.15 1009.70 1010.27 1010.84 1011.42 1011.99 1012.54 1013.06 1013.55 1014.00 1014.42 1014.81 1015.17 1015.52 1015.88 1016.25
1002.03 1002.18 1002.34 1002.48 1002.61 1002.74 1002.86 1003.00 1003.15 1003.33 1003.56 1003.83 1004.15 1004.52 1004.93 1005.37 1005.84 1006.33 1006.82 1007.32 1007.83 1008.34 1008.86 1009.40 1009.94 1010.49 1011.05 1011.60 1012.15 1012.67 1013.18 1013.65 1014.09 1014.51 1014.90 1015.28 1015.66 1016.04
1001.54 1001.63 1001.71 1001.80 1001.89 1001.99 1002.10 1002.23 1002.39 1002.60 1002.85 1003.16 1003.53 1003.94 1004.40 1004.90 1005.41 1005.94 1006.48 1007.01 1007.54 1008.07 1008.60 1009.13 1009.67 1010.21 1010.75 1011.30 1011.84 1012.37 1012.89 1013.38 1013.84 1014.28 1014.70 1015.11 1015.50 1015.89
1000.88 1000.91 1000.95 1001.01 1001.08 1001.17 1001.29 1001.44 1001.64 1001.87 1002.17 1002.51 1002.92 1003.38 1003.88 1004.42 1004.98 1005.55 1006.13 1006.70 1007.26 1007.81 1008.36 1008.90 1009.43 1009.97 1010.51 1011.04 1011.58 1012.11 1012.63 1013.13 1013.61 1014.08 1014.52 1014.94 1015.35 1015.75
1000.14 1000.14 1000.17 1000.23 1000.31 1000.43 1000.58 1000.77 1000.99 1001.27 1001.59 1001.97 1002.41 1002.90 1003.43 1004.00 1004.59 1005.20 1005.80 1006.41 1006.99 1007.57 1008.12 1008.67 1009.20 1009.73 1010.25 1010.78 1011.30 1011.82 1012.33 1012.84 1013.33 1013.81 1014.27 1014.71 1015.14 1015.55
999.48 999.48 999.52 999.60 999.73 999.88 1000.08 1000.30 1000.57 1000.87 1001.22 1001.62 1002.07 1002.56 1003.10 1003.68 1004.28 1004.90 1005.52 1006.14 1006.74 1007.33 1007.89 1008.43 1008.95 1009.46 1009.96 1010.45 1010.94 1011.44 1011.94 1012.44 1012.93 1013.42 1013.90 1014.36 1014.81 1015.24
999.00 999.03 999.11 999.24 999.41 999.63 999.87 1000.13 1000.42 1000.74 1001.10 1001.49 1001.92 1002.40 1002.92 1003.48 1004.07 1004.68 1005.30 1005.91 1006.51 1007.08 1007.63 1008.15 1008.64 1009.12 1009.58 1010.03 1010.49 1010.95 1011.42 1011.90 1012.39 1012.89 1013.38 1013.87 1014.34 1014.79
Thickness
5651 5655 5659 5665 5669 5673 5678 5682 5682 5683 5690 5701 5708 5716 5719 5719 5718 5720 5720 5722 5724 5726 5728 5730 5732 5733 5733 5733 5732 5730 5729 5728 5725 5723 5721 5719 5718 5717
5640 5643 5649 5654 5658 5663 5669 5674 5678 5680 5682 5692 5700 5707 5711 5712 5711 5713 5714 5715 5717 5719 5722 5725 5727 5729 5730 5730 5729 5728 5727 5726 5724 5722 5719 5718 5717 5715
5629 5632 5637 5643 5647 5653 5658 5664 5670 5674 5675 5683 5692 5698 5701 5701 5702 5704 5706 5708 5708 5711 5714 5718 5721 5723 5725 5725 5725 5724 5724 5723 5721 5719 5717 5715 5714 5713
5617 5621 5626 5631 5636 5641 5647 5653 5659 5665 5668 5671 5678 5684 5689 5691 5693 5696 5699 5701 5701 5702 5706 5709 5713 5716 5718 5719 5719 5719 5719 5718 5717 5715 5713 5712 5710 5709
5607 5611 5615 5619 5624 5630 5635 5641 5647 5654 5659 5662 5667 5674 5679 5682 5684 5687 5690 5692 5693 5694 5697 5700 5704 5707 5709 5711 5712 5713 5713 5712 5711 5710 5708 5706 5705 5704
5597 5600 5605 5609 5613 5618 5623 5629 5635 5641 5647 5652 5658 5663 5668 5673 5675 5677 5678 5682 5685 5688 5689 5691 5694 5697 5699 5701 5703 5704 5705 5705 5704 5703 5701 5700 5699 5698
5584 5589 5594 5599 5604 5608 5613 5618 5624 5630 5636 5642 5648 5653 5658 5662 5666 5670 5671 5673 5676 5680 5682 5683 5686 5688 5689 5691 5693 5695 5696 5696 5696 5695 5694 5692 5691 5690
5571 5577 5582 5588 5593 5598 5603 5608 5614 5619 5625 5631 5638 5645 5651 5655 5660 5664 5663 5665 5666 5673 5676 5676 5679 5679 5680 5681 5683 5685 5687 5687 5687 5686 5685 5684 5683 5682
5560 5565 5570 5580 5584 5589 5593 5598 5603 5609 5616 5623 5630 5636 5642 5649 5652 5656 5658 5661 5664 5668 5670 5667 5669 5669 5668 5669 5672 5675 5676 5677 5676 5676 5676 5674 5673 5672
5552 5556 5560 5567 5575 5580 5584 5589 5594 5600 5607 5615 5623 5629 5635 5641 5646 5650 5652 5654 5657 5660 5665 5659 5659 5659 5659 5659 5661 5664 5666 5666 5666 5666 5665 5664 5662 5661
5544 5550 5554 5559 5565 5571 5576 5582 5586 5592 5598 5606 5613 5619 5625 5631 5637 5640 5643 5645 5646 5649 5655 5655 5651 5650 5650 5649 5650 5653 5655 5656 5656 5656 5655 5653 5653 5652
5538 5544 5549 5553 5557 5562 5568 5573 5577 5583 5590 5597 5602 5608 5615 5622 5628 5633 5638 5642 5643 5642 5647 5649 5647 5648 5644 5642 5643 5644 5645 5645 5646 5646 5646 5645 5644 5643
5532 5538 5544 5547 5552 5556 5563 5567 5571 5576 5582 5588 5594 5600 5606 5614 5620 5627 5633 5639 5641 5642 5645 5647 5645 5647 5645 5640 5638 5638 5638 5638 5638 5638 5638 5638 5637 5637
5527 5533 5539 5543 5546 5551 5556 5562 5565 5568 5575 5581 5587 5593 5599 5607 5614 5621 5627 5632 5638 5641 5643 5646 5646 5646 5644 5639 5636 5634 5634 5634 5634 5633 5632 5631 5631 5630
5522 5527 5533 5537 5540 5545 5550 5555 5559 5564 5570 5576 5582 5589 5595 5602 5608 5612 5617 5623 5628 5633 5636 5640 5643 5643 5643 5642 5638 5634 5631 5629 5629 5628 5627 5626 5625 5624
5519 5524 5528 5532 5538 5544 5548 5550 5555 5562 5567 5572 5578 5584 5589 5594 5599 5604 5608 5612 5616 5620 5626 5631 5636 5638 5638 5638 5637 5632 5630 5629 5627 5625 5623 5622 5621 5620
5520 5523 5527 5532 5537 5543 5549 5552 5556 5560 5564 5569 5574 5578 5582 5587 5591 5596 5601 5605 5610 5614 5616 5621 5626 5631 5634 5634 5631 5629 5628 5626 5623 5621 5618 5616 5616 5616
5521 5526 5530 5535 5540 5545 5550 5555 5558 5561 5565 5568 5571 5574 5578 5581 5586 5590 5594 5599 5605 5609 5611 5614 5618 5621 5622 5624 5627 5626 5624 5622 5619 5617 5615 5613 5611 5611
5524 5529 5533 5537 5542 5547 5552 5556 5559 5562 5564 5566 5568 5571 5574 5577 5581 5585 5589 5595 5600 5603 5607 5610 5614 5617 5617 5616 5618 5622 5620 5617 5614 5611 5611 5611 5609 5608
5529 5533 5537 5540 5544 5549 5552 5556 5559 5561 5563 5564 5565 5567 5570 5573 5577 5581 5586 5591 5595 5598 5601 5605 5610 5614 5616 5616 5615 5615 5617 5614 5611 5608 5608 5609 5607 5606
5533 5537 5540 5543 5547 5549 5552 5555 5557 5559 5560 5561 5562 5564 5567 5571 5575 5579 5583 5586 5591 5595 5598 5602 5607 5610 5613 5613 5611 5609 5610 5610 5609 5608 5607 5605 5602 5600
5536 5539 5541 5544 5546 5548 5550 5553 5554 5555 5556 5558 5560 5563 5566 5570 5574 5578 5581 5585 5588 5593 5596 5600 5602 5605 5607 5608 5607 5605 5604 5603 5604 5604 5605 5605 5603 5600
5538 5540 5541 5542 5544 5546 5548 5550 5551 5553 5555 5557 5559 5561 5565 5568 5572 5576 5579 5583 5587 5591 5594 5596 5599 5601 5604 5606 5605 5603 5602 5600 5600 5599 5599 5601 5601 5601